ONEWEB-0095, 45436

Orbit data source: Space-Track

ONEWEB-0095, 45436 is a payload satellite owned by One Web (UK) in LEO that was launched on Sat, 21 Mar 2020 UTC via a SOYUZ-2-1B launch vehicle from the Tyuratam Missile And Space Complex (TTMTR). Payload-class satellites include a variety of spacecraft equipped with specific instruments for various scientific and technological missions. These include communications satellites like Starlink; space stations such as the ISS; scientific satellites like the Hubble; Earth observation satellites from companies like Planet Labs, Umbra, and HawkEye 360; GPS; miniature CubeSats for education and research; and military/defense satellites.

Loading next visibility...
Identifier
45436, 2020-020N
Orbit
LEO
Country
Flag of UKUK
Related business
Manufacturer
One Web
Mission
Operational Commercial Communications
Bus & Motor
ARROW, Unknown motor
Mass
148 kg wet, ~140 kg dry
Launch date (UTC)
2020-03-21 (6 years ago)
Launch vehicle
SOYUZ-2-1B
Launch site
Tyuratam Missile And Space Complex (TTMTR)
Object type
Payload
Rocket body
Debris
Shape & HBR
Trap Box + 2 Pan, 6.7 m
Radar Cross Section
3.464 m², Large (>1 m²)

Expand to show TLE details & history
Last TLE update: 14 hours ago

TLE from 14 hours ago
0 ONEWEB-0095
1 45436U 20020N   26254.56733555 -.00000445  00000-0 -12922-2 0  9997
2 45436  87.8961   3.8935 0001349 120.0569 240.0693 13.11418129313991
Epoch: 2026-09-11T13:36Z
TLE epoch observation values (Epoch: 2026-09-11T13:36:57.791Z)
Latitude
-0.00001°
Longitude
169.06387°
Altitude
1,221.079 km
Speed
7.244 km/s
True Right ascension
00h 15m 34s
True Declination
0° 00' 00"
Sunlit
Object was in full shadow at epoch
Visualization orbit readout
Latitude
Unknown
Longitude
Unknown
Altitude
Unknown
Speed
Unknown
Apparent Right ascension
Unknown
Apparent Declination
Unknown
Sunlit
N/A
Visualization observer readout
Local Sidereal Time
20:07:32
Azimuth
Unknown
Elevation
Unknown
Doppler factor
Unknown
Orbital elements
Apogee altitude
1,215.821 km
Perigee altitude
1,213.772 km
Semi-major axis
7,592.933 km
Eccentricity
0.00013
Inclination
87.8961°
RAAN
3.8935°
Arg. of periapsis
120.0569°
True anomaly
240.0559°
Mean anomaly
240.0693°
Eccentric anomaly
240.0626°
Mean motion
3.28042 °/min
Orbital period
109.74 mins
BSTAR
-0.0012922
Loading maneuver chart data...
Computing Atmospheric mass density...
Loading historical data...
Loading historical data...
Loading historical data...
Loading historical data...
Loading historical data...
Loading historical data...
Loading historical data...

Documentation

Showing up to 5 results
|